sat.trackr.live / text

‹ back to catalog

STARLINK-34256

NORAD 64249 · 2025-119S

PAYLOAD ACTIVE UNKNOWN

§ Identity

Operator
Country
US
Launch date
2025-06-03
Launch site
AFETR
Launch vehicle
Mass (kg)
RCS (m²)

Purposes: comms

External: N2YO · Heavens-Above · Gunter

§ Orbital elements

Epoch: 2026-09-19T09:04:15.879648Z

Period
94.26 min
Inclination
43.0000°
Eccentricity
0.0000616
Mean motion
15.27630863 rev/d
Perigee alt
482.5 km
Apogee alt
483.3 km
Semi-major
6,861.0 km
B*
7.9890e-4
RAAN
293.0092°
Arg perigee
231.0385°
Mean anomaly
129.0412°
Rev number
7,379

§ Raw data

STARLINK-342561 64249U 25119S   26262.37796157  .00021821  00000+0  79890-3 0  99952 64249  43.0000 293.0092 0000616 231.0385 129.0412 15.27630863 73790

JSON: /api/v1/satellites/64249 · /tle

For live sub-satellite position, see the globe view (requires WebGL).

§ Visibility from observer

Set your observer location to see the next 7 days of passes ≥ 10°. The values pass through the URL so the page stays shareable.

No JS? Fill the form by hand. The geolocation button needs JavaScript.